Regional Weather Roundup
Issued by NWS

Home | Current Version | Previous Version | Graphics & Text | Print | Product List | Glossary On
Versions: 1 2 3 4 5 6 7 8 9 10 11 12 13 14 15 16 17 18 19 20 21 22 23 24 25 26 27 28 29 30 31 32 33 34 35 36 37 38 39 40 41 42 43 44 45 46 47 48 49 50
000
ASUS43 KMKX 192111
RWRWI

WISCONSIN REGIONAL WEATHER ROUNDUP
NATIONAL WEATHER SERVICE MILWAUKEE/SULLIVAN WI
300 PM CST FRI DEC 19 2014

NOTE: "FAIR" INDICATES FEW OR NO CLOUDS BELOW 12,000 FEET WITH NO
SIGNIFICANT WEATHER AND/OR OBSTRUCTIONS TO VISIBILITY.

WIZ001-002-006>008-014>016-023>028-192200-
NORTHWEST WISCONSIN

CITY           SKY/WX    TMP DP  RH WIND       PRES   REMARKS
SUPERIOR ARPT  CLOUDY    27  23  83 S5        30.21S WCI  22
ASHLAND        CLOUDY    25  21  85 S3        30.23F
HAYWARD        CLOUDY    25  20  81 S8        30.20S HAZE    WCI  16
SIREN          CLOUDY    27  20  77 SE6       30.20S WCI  20
CUMBERLAND     CLOUDY    27  19  74 S8        30.20S WCI  18
RICE LAKE      CLOUDY    27  21  79 SE8       30.22F WCI  18
CHETEK         CLOUDY    26  21  80 SE8       30.22S WCI  18
LADYSMITH      CLOUDY    26  22  86 S7        30.23S WCI  18
EAU CLAIRE     CLOUDY    27  19  72 SE6       30.23S WCI  20
MENOMONIE      CLOUDY    28  20  71 SE7       30.23S WCI  21
NEW RICHMOND   CLOUDY    27  23  86 SE7       30.20F WCI  19
OSCEOLA        CLOUDY    28  23  82 SE8       30.23S WCI  19
$$

WIZ003>005-009-010-017-018-192200-
NORTH CENTRAL WISCONSIN

CITY           SKY/WX    TMP DP  RH WIND       PRES   REMARKS
MANITOWISH WTR CLOUDY    22  17  81 S8        30.19S WCI  13
ARBOR VITAE    CLOUDY    23  19  83 S7        30.20S WCI  15
WOODRUFF       CLOUDY    23  19  83 S7        30.20S WCI  15
RHINELANDER    CLEAR     23  16  74 W5        30.20S WCI  17
EAGLE RIVER    PTCLDY    25  17  72 SW3       30.18S
LAND O LAKES   MOCLDY    24  19  82 SW3       30.20S
PHILLIPS       CLOUDY    23  19  87 S7        30.20S WCI  14
TOMAHAWK       MOCLDY    23  17  77 CALM      30.21S
MEDFORD        CLOUDY    22  20  92 S7        30.22R WCI  13
MERRILL        MOCLDY    25  18  73 SW6       30.23R WCI  18
$$

WIZ029-030-035-036-043>047-192200-
CENTRAL WISCONSIN

CITY           SKY/WX    TMP DP  RH WIND       PRES   REMARKS
WAUSAU         CLOUDY    26  17  68 SW6       30.22S WCI  19
MOSINEE        CLOUDY    27  19  74 SW7       30.24S WCI  19
MARSHFIELD     CLOUDY    24  20  84 S7        30.23F WCI  16
STEVENS POINT  CLOUDY    24  17  72 SW6       30.25S WCI  17
WAUPACA          N/A     32  19  59 S5        30.26S WCI  27
WAUTOMA        CLOUDY    27  19  71 CALM      30.27S
WISC RAPIDS    CLOUDY    25  18  74 W7        30.27S WCI  17
CAMP DOUGLAS   CLOUDY    26  24  91 E1        30.25F
$$

WIZ011>013-019>022-031-037>040-048>050-192200-
NORTHEAST WISCONSIN

CITY           SKY/WX    TMP DP  RH WIND       PRES   REMARKS
ANTIGO         CLEAR     27  17  68 S5        30.21R WCI  21
SHAWANO        CLEAR     31  21  65 CALM      30.26S
OCONTO         CLEAR     29  22  75 SE5       30.27S WCI  24
STURGEON BAY   MOCLDY    28  19  69 W6        30.28S WCI  22
GREEN BAY      PTCLDY    30  22  72 VRB3      30.27S
MANITOWOC      CLOUDY    31  23  72 N5        30.27S WCI  26
APPLETON       MOCLDY    28  19  69 VRB5      30.26S WCI  23
CLINTONVILLE   CLEAR     30  19  64 SW3       30.26S
OSHKOSH        MOCLDY    29  18  63 CALM      30.26F
$$

WIZ032>034-041-042-053>061-192200-
SOUTHWEST WISCONSIN

CITY           SKY/WX    TMP DP  RH WIND       PRES   REMARKS
LA CROSSE      CLOUDY    30  20  66 S6        30.25F WCI  24
SPARTA         CLOUDY    29  19  66 CALM      30.26S
VIROQUA        CLOUDY    28  21  74 S3        30.22S
BOSCOBEL       CLOUDY    31  19  61 CALM      30.27S
PRAIRIE DU CHI CLOUDY    29  20  68 SE3       30.27R
PLATTEVILLE    CLOUDY    28  21  73 CALM      30.26R
$$

WIZ056-057-062-063-064-067-068-192200-
SOUTH CENTRAL WISCONSIN

CITY           SKY/WX    TMP DP  RH WIND       PRES   REMARKS
REEDSBURG      CLOUDY    25  21  82 CALM      30.26R
BARABOO/DELLS  CLOUDY    25  20  83 CALM      30.26R
LONE ROCK      CLOUDY    32  18  56 CALM      30.27S
MINERAL POINT  CLOUDY    30  21  69 CALM      30.24R
MADISON        CLOUDY    26  20  77 CALM      30.26S
MIDDLETON      CLOUDY    28  22  79 CALM      30.26R
WATERTOWN      CLOUDY    28  19  68 CALM      30.25S
MONROE         CLOUDY    28  23  80 CALM      30.24S
JANESVILLE     CLOUDY    28  21  74 CALM      30.26S
$$

WIZ051-052-058>065-066-070>072-192200-
SOUTHEAST WISCONSIN

CITY           SKY/WX    TMP DP  RH WIND       PRES   REMARKS
MILWAUKEE      PTSUNNY   31  18  58 CALM      30.25F
WAUKESHA       CLOUDY    28  18  64 MISG      30.26F
MILWAUKEE/TIMM CLOUDY    30  18  59 S3        30.26F
RACINE         CLOUDY    32  20  61 SW5       30.27F WCI  27
BURLINGTON     CLOUDY    27  17  66 CALM      30.26R
KENOSHA        CLOUDY    30  20  66 CALM      30.26F
FOND DU LAC    CLOUDY    29  18  63 SW3       30.26S
SHEBOYGAN      CLOUDY    30  21  69 W3        30.26S
WEST BEND      CLOUDY    30  19  64 CALM      30.25S
JUNEAU         CLOUDY    27  18  68 CALM      30.26S
$$

LSZ147-162-192200-
LAKE SUPERIOR

STATION/POSITION TIME  TEMP    WIND        PRES    WAVE
                       AIR SEA DIR/SP/G            HT/PER
                 (UTC) (F)     (DEG/KT/KT) (MB)    (FT/S)
DEVILS ISLAND    2100   25     180/  5/  7 1025.1R
PORT WING        2040   26     170/  5/  7 1023.7F
SAXON HARBOR     2000   26     190/  4/  8 1023.7F
$$

LMZ867-665-643>646-192200-
LAKE MICHIGAN

STATION/POSITION TIME  TEMP    WIND        PRES    WAVE
                       AIR SEA DIR/SP/G            HT/PER
                 (UTC) (F)     (DEG/KT/KT) (MB)    (FT/S)
CHAMBERS ISLAND  2000   28      10/  1/  4 1025.4S
NORTHPORT PIER   2000   28     300/  2/  6 1025.1S
SISTER BAY       1928          340/  6/  7   N/A
ALGOMA LAKESHORE 1914          330/  5/  7   N/A
KEWAUNEE LAKESHO 2000   32      CALM  /  1 1024.0F
SHEBOYGAN LAKESH 2100   31 33  310/  3/  4 1026.0R
PORT WASHINGTON  2040   31     320/  2/  3 1025.4F
MILWAUKEE LAKESH 2000   31     240/  6/  7   N/A
KENOSHA   LAKESH 2100   30     250/  6/  7 1024.7S
$$

TC  - TEMPERATURE IN CELSIUS
VSB - VISIBILITY IN STATUTE MILES
WCI - WIND CHILL INDEX
HX  - HEAT INDEX



USA.gov is the U.S. government's official web portal to all federal, state and local government web resources and services.